Temperature
16 16 16 15 15 15 15 15 15 15 15 15 15 15 14 14 14 14 14 14 14 14 14 14 14 13 13 13 13 13 13 12 12 12 11 11 11 11 11 10 10 10 10
16 15 15 15 15 15 15 15 15 15 14 15 14 14 14 14 14 14 14 14 14 14 13 13 13 13 13 13 13 12 12 12 12 12 11 11 10 10 10 10 10 10 10
16 16 15 15 15 15 15 15 14 14 14 14 14 14 14 14 14 14 14 13 13 13 13 13 13 13 13 13 13 12 12 12 12 11 11 11 11 10 10 10 10 10 9
15 15 15 15 15 15 15 14 14 14 14 14 14 14 14 14 14 14 13 13 13 13 13 13 13 13 13 13 12 12 12 12 12 11 11 11 10 10 10 10 9 9 9
15 15 15 15 15 15 14 14 14 14 14 14 14 14 14 14 14 13 13 13 13 13 13 13 13 13 13 12 12 12 12 12 11 11 11 11 10 10 10 10 9 9 9
15 15 15 15 15 15 14 14 14 14 14 14 14 14 14 14 14 14 13 13 13 13 13 12 12 12 12 12 12 12 12 11 11 11 10 10 10 10 10 10 9 9 9
15 15 15 15 14 14 14 14 14 14 14 14 14 14 13 13 13 13 13 13 13 12 12 12 12 12 12 12 12 12 12 11 11 11 10 10 10 10 10 9 9 9 8
15 14 14 14 14 14 14 14 14 14 14 14 14 14 13 13 13 13 13 13 13 12 12 12 12 12 12 11 11 11 11 11 11 11 10 10 10 10 10 9 9 9 8
14 14 14 14 14 14 14 14 14 14 14 14 13 13 13 13 13 13 13 12 12 12 12 12 12 12 12 12 11 11 11 11 11 11 10 10 10 10 10 9 9 8 8
14 14 14 14 14 14 14 14 14 14 13 13 13 13 13 13 13 13 12 12 12 12 12 12 12 12 12 11 11 11 10 10 10 10 10 10 10 9 9 9 8 8 8
14 14 14 13 14 14 14 14 14 13 13 13 13 13 13 13 13 13 12 12 12 12 12 12 12 12 11 11 11 10 10 10 10 9 9 9 9 9 9 8 8 8 7
14 13 13 13 13 13 13 13 13 13 13 13 13 13 12 12 12 12 12 12 12 11 11 11 11 11 11 11 11 10 10 10 9 9 9 9 9 8 8 8 8 8 7
13 13 13 13 13 13 13 13 13 13 13 12 12 12 12 12 12 12 12 11 11 11 11 11 11 11 10 10 10 10 10 9 9 9 8 8 8 8 8 8 7 7 7
13 13 13 13 13 13 13 13 13 13 12 12 12 12 12 12 12 12 11 11 11 11 11 11 11 10 10 10 10 9 9 9 9 8 8 8 8 8 7 7 7 7 6
13 13 13 13 13 13 13 13 12 12 12 12 12 12 12 12 12 11 11 11 11 11 10 10 10 10 10 9 9 9 9 9 8 8 8 8 7 7 7 7 7 6 6
13 12 12 12 13 13 12 12 12 12 12 12 12 12 12 12 12 11 11 11 11 11 10 10 10 9 9 9 9 9 9 8 8 8 8 7 7 7 7 7 6 6 5
12 12 12 12 12 12 12 12 12 12 12 12 12 12 11 11 11 11 11 10 10 10 10 10 9 9 9 9 9 9 8 8 8 8 7 7 7 7 6 6 6 5 5
12 12 12 12 12 12 12 12 11 11 11 11 11 11 11 11 11 11 10 10 10 10 10 9 9 9 9 9 9 8 8 8 8 8 7 7 7 6 6 6 5 5 5
12 12 12 12 12 12 12 11 11 11 11 11 11 11 11 10 10 10 10 10 10 10 9 9 9 9 9 9 9 8 8 8 8 7 7 7 6 6 6 5 5 5 4
12 12 12 11 11 11 11 11 11 11 11 11 11 11 10 10 10 10 10 10 9 9 9 9 9 9 9 9 8 8 8 7 7 7 7 6 6 6 5 5 5 4 4
11 11 11 11 11 11 11 11 11 11 11 11 11 11 11 10 10 10 10 9 9 9 9 9 9 9 9 8 8 8 8 7 7 7 6 6 6 6 5 5 5 4 4
11 11 11 11 11 11 11 11 10 10 10 10 10 10 10 10 10 9 9 9 9 9 9 9 9 9 8 8 8 8 7 7 7 7 6 6 6 5 5 5 4 4 3
11 11 11 11 11 11 10 10 10 10 10 10 10 10 10 10 9 9 9 9 9 9 9 8 8 8 8 8 8 7 7 7 7 7 6 6 5 5 5 4 4 4 3
10 10 10 10 10 10 10 10 10 10 10 10 10 10 9 9 9 9 9 9 9 9 8 8 8 8 8 8 8 7 7 7 7 6 6 6 5 5 5 4 4 3 3
10 10 10 10 10 10 10 10 10 10 10 9 9 9 9 9 9 9 9 9 8 8 8 8 8 8 8 8 7 7 7 7 6 6 6 6 5 5 4 4 4 3 3
10 10 10 10 10 10 10 10 10 9 9 9 9 9 9 9 9 9 8 8 8 8 8 8 8 8 8 7 7 7 7 6 6 6 6 5 5 5 4 4 3 3 3
Wind_Speed
8 8 7 6 6 6 5 5 5 5 5 5 5 4 4 4 4 4 3 3 3 3 3 2 2 2 2 1 1 1 1 1 2 1 1 2 2 2 3 3 3 3 6
8 7 7 6 6 6 6 6 6 6 5 5 5 5 4 4 4 4 4 4 3 3 2 2 2 2 2 1 1 1 1 1 2 2 2 2 2 2 2 2 2 3 4
7 7 6 6 6 6 6 6 6 6 6 5 5 5 4 4 4 4 4 4 3 2 2 2 2 2 2 2 2 2 2 2 2 2 2 2 2 2 2 1 2 1 2
7 7 7 7 6 6 6 5 5 6 6 6 5 5 4 4 4 4 4 4 3 3 2 2 2 2 2 2 2 2 2 3 3 2 2 2 1 1 1 1 1 1 0
7 7 7 7 6 6 5 5 5 5 5 5 5 5 4 4 3 4 4 4 4 3 3 2 1 2 3 1 1 2 3 3 3 2 2 2 2 1 1 1 1 1 1
7 7 6 6 6 6 6 5 5 4 5 4 5 5 4 3 3 2 3 4 4 3 3 3 3 3 4 4 4 3 1 1 2 2 2 1 1 1 1 1 1 1 1
6 6 7 7 7 6 6 6 5 5 4 4 4 4 4 4 6 4 3 4 3 3 3 3 2 2 3 4 5 5 3 3 1 1 1 1 1 1 1 2 2 2 1
6 6 6 7 6 6 6 5 5 5 5 4 4 4 4 4 6 6 5 4 3 3 3 3 3 3 2 3 4 4 3 3 1 1 1 0 1 1 1 2 2 2 1
7 6 7 7 7 7 7 6 5 5 5 4 4 5 5 5 6 6 5 4 4 4 3 3 3 3 3 2 3 4 4 3 5 5 6 5 5 4 2 0 0 1 2
7 6 6 7 7 7 7 6 5 5 5 4 4 5 5 5 7 7 6 4 5 4 3 3 2 2 4 3 4 4 3 3 3 3 3 3 2 3 1 1 1 2 2
6 6 6 7 7 7 6 6 6 5 5 4 5 4 4 4 6 6 6 4 4 5 4 4 3 5 5 4 3 3 2 2 3 2 2 2 2 1 1 0 1 2 2
5 6 6 6 6 5 6 5 5 6 6 5 5 4 3 4 4 5 6 5 3 4 4 4 4 7 6 5 3 3 4 3 2 2 2 2 1 1 1 0 0 1 2
6 6 6 6 5 6 6 6 6 5 5 5 4 4 4 3 4 6 6 6 4 3 3 3 5 7 7 5 4 5 5 3 3 2 2 2 1 1 1 1 1 1 1
7 7 6 6 6 6 5 5 5 6 5 5 5 5 4 4 4 4 4 5 5 4 3 5 6 6 4 3 5 5 3 2 3 3 2 2 1 2 2 1 2 1 1
6 6 7 6 6 5 5 4 6 6 6 6 6 6 6 6 5 6 5 5 5 5 5 4 4 4 4 4 4 4 4 3 3 3 2 2 2 2 2 1 2 2 2
6 6 5 5 5 5 5 4 1 2 3 3 3 4 4 4 7 8 6 5 6 7 6 5 5 5 5 5 5 5 4 4 4 4 3 3 3 3 2 2 2 2 3
6 6 5 5 5 6 6 6 5 3 3 4 5 5 4 6 8 9 8 8 8 9 5 5 5 6 6 6 5 5 5 5 4 4 4 4 4 3 3 3 2 3 3
6 6 5 5 6 6 6 6 6 6 5 4 4 6 7 7 8 9 9 8 5 6 5 5 5 5 5 5 5 5 5 5 5 5 5 4 4 4 4 3 3 3 3
6 5 5 5 6 6 6 6 6 7 6 5 4 5 7 7 8 9 10 6 6 6 6 6 5 5 5 5 5 5 5 5 5 5 5 5 4 4 4 4 4 4 4
6 6 6 5 5 5 6 6 6 6 7 6 6 6 6 6 6 6 7 7 6 6 6 6 6 6 5 5 5 5 5 5 5 5 5 5 5 5 5 5 4 4 4
5 6 7 6 6 6 6 6 6 7 7 7 7 7 9 8 7 8 7 7 7 7 7 6 6 6 6 5 5 6 6 5 5 5 5 5 5 5 5 5 5 5 4
5 6 7 7 6 6 6 6 6 7 8 8 6 7 10 8 7 7 7 7 7 7 6 6 6 6 6 6 6 6 6 6 6 5 5 5 5 5 5 5 5 5 5
6 6 6 6 6 6 7 7 7 7 7 7 7 7 8 8 7 7 7 7 7 6 6 6 6 6 6 6 6 6 6 6 6 6 6 5 5 5 5 6 6 6 6
6 7 7 6 6 6 7 7 7 7 7 7 7 7 7 7 8 8 7 7 7 7 6 6 7 8 8 7 6 7 7 6 6 7 7 6 6 5 6 6 6 7 6
6 7 7 6 7 7 7 7 7 7 7 7 7 7 7 7 7 7 7 7 7 7 7 7 7 8 9 9 8 7 7 8 8 7 7 6 6 6 6 7 6 6 6
6 7 6 6 6 7 7 7 7 7 7 6 7 7 7 7 7 7 7 7 7 7 7 7 8 8 9 9 9 9 9 10 10 9 7 6 6 6 6 6 7 6 6
Wind_Direction
192 193 190 188 190 191 195 195 192 191 192 193 190 185 183 182 183 180 184 179 181 174 176 178 167 167 169 184 211 219 226 191 153 148 139 125 128 119 115 111 109 100 92
193 190 190 184 187 193 196 196 195 194 196 198 195 192 190 190 190 185 181 182 184 182 178 173 159 151 156 175 184 173 148 157 166 160 155 153 147 128 135 142 123 103 95
188 186 188 191 195 196 196 195 195 196 194 195 193 192 191 191 192 191 182 177 176 178 182 174 160 156 160 158 163 161 146 134 142 160 155 151 164 151 149 142 134 119 111
184 185 190 196 196 196 193 192 193 194 194 194 190 187 189 189 193 193 185 176 172 174 180 180 176 174 178 165 168 166 157 148 150 159 158 157 154 163 189 197 175 159 144
184 185 189 192 188 184 181 184 184 185 191 188 179 180 181 183 192 192 184 179 174 171 169 164 141 92 50 92 173 174 166 164 161 163 170 169 164 178 216 227 240 223 162
188 185 182 182 178 177 178 172 168 173 177 173 179 178 174 172 132 148 191 177 173 174 174 168 154 143 122 108 90 64 31 186 176 172 182 195 198 207 227 230 237 248 239
188 183 178 177 174 179 176 167 166 171 171 172 176 177 180 158 142 152 184 186 176 178 182 171 153 151 162 152 135 132 100 56 350 239 211 245 253 248 242 239 245 258 285
190 186 181 177 177 177 175 174 179 174 172 181 178 178 173 161 149 156 173 183 175 178 182 178 171 163 153 164 151 141 128 112 113 186 170 102 357 320 264 265 262 250 237
194 191 182 180 182 180 178 178 181 177 179 184 182 177 176 169 158 167 185 179 176 175 173 174 174 163 128 182 166 155 144 126 96 84 65 75 67 47 12 252 241 245 253
196 194 185 182 185 187 183 179 175 178 184 181 180 185 183 183 163 176 198 182 180 175 170 164 133 151 143 179 181 175 172 159 149 140 136 141 135 117 141 238 262 268 278
194 191 187 184 188 186 179 176 173 175 177 179 178 180 183 179 165 176 199 194 187 184 178 176 162 145 148 170 203 185 168 175 173 174 168 156 150 139 153 231 283 281 281
191 190 188 185 183 178 173 174 178 174 174 176 178 174 177 172 170 173 183 197 206 191 190 184 161 154 157 168 178 128 135 178 183 185 187 187 191 198 199 195 271 286 298
194 192 192 188 183 180 178 176 180 180 183 184 185 185 181 176 165 160 175 183 195 196 178 133 144 161 164 165 156 157 171 183 185 198 205 205 208 199 174 176 220 241 282
195 193 192 189 186 187 186 186 186 187 188 189 190 193 188 183 180 174 177 172 167 173 163 140 144 154 174 154 160 173 194 196 204 204 203 198 191 197 207 219 231 235 259
199 197 194 190 187 191 192 199 201 199 197 196 198 198 194 197 187 174 181 186 189 184 167 164 168 171 180 186 189 189 195 195 202 206 202 201 204 213 222 233 248 251 256
202 198 197 191 188 190 190 191 186 213 167 187 191 201 198 170 148 158 169 165 157 159 169 179 188 194 196 198 200 203 206 205 205 205 207 212 216 219 220 231 243 243 254
207 203 199 197 193 193 194 196 196 174 150 179 181 184 187 163 160 166 167 161 160 166 188 199 203 206 209 209 209 212 213 211 208 208 212 215 216 219 224 226 234 249 257
210 206 202 201 202 200 200 202 203 197 194 198 188 180 177 174 171 167 160 155 172 192 210 212 214 214 212 212 210 211 214 214 212 212 214 215 215 219 224 229 233 245 259
210 209 205 205 204 203 202 202 204 203 202 197 187 180 179 176 170 169 170 192 200 205 213 217 217 215 215 213 212 214 214 215 217 215 216 215 217 222 226 230 234 238 248
211 202 203 206 204 203 202 203 205 205 204 201 199 193 178 179 189 188 198 212 215 214 214 215 214 215 214 214 213 214 216 216 217 219 219 216 216 221 226 229 231 236 243
212 202 193 204 207 205 205 206 208 210 210 209 208 195 179 193 201 202 206 213 216 217 217 216 212 211 213 211 211 214 217 219 218 220 217 216 217 221 227 229 230 234 241
213 210 205 206 208 208 210 209 210 214 215 215 211 192 180 200 207 209 212 216 218 219 217 215 214 211 209 211 213 216 220 222 220 219 219 218 218 219 222 226 226 229 237
214 214 212 209 210 206 210 213 213 215 215 213 208 200 194 206 213 214 215 216 214 214 213 212 213 213 212 213 215 218 222 224 222 216 216 219 218 217 219 224 227 231 235
212 213 212 210 210 214 216 214 215 216 215 213 211 210 208 210 214 215 214 212 211 209 209 211 214 216 214 213 216 218 221 221 219 216 214 216 217 218 219 224 229 232 237
214 214 213 213 214 217 218 215 215 215 215 216 216 216 215 213 214 214 212 209 207 209 210 210 211 213 216 217 217 216 210 207 210 214 210 213 216 219 222 225 228 233 236
217 217 216 216 219 221 218 216 216 218 218 219 219 219 216 215 214 213 210 206 205 206 209 210 212 211 212 213 213 210 205 201 202 208 208 211 215 219 223 227 229 232 237
Height
1534 1537 1538 1541 1542 1543 1545 1546 1547 1549 1550 1552 1553 1554 1554 1555 1555 1556 1556 1556 1557 1557 1557 1557 1557 1557 1557 1557 1557 1557 1557 1557 1557 1556 1556 1556 1555 1555 1555 1554 1554 1553 1552
1532 1534 1536 1538 1540 1541 1543 1544 1546 1547 1549 1550 1551 1552 1553 1553 1554 1555 1555 1555 1556 1556 1556 1556 1556 1556 1556 1556 1556 1556 1556 1556 1556 1555 1555 1555 1555 1554 1554 1554 1553 1553 1552
1529 1531 1534 1536 1538 1539 1540 1542 1544 1545 1547 1548 1549 1550 1551 1552 1552 1553 1554 1554 1555 1555 1555 1555 1555 1555 1555 1555 1555 1555 1555 1555 1555 1555 1554 1554 1554 1554 1553 1553 1553 1552 1552
1527 1529 1531 1533 1535 1536 1538 1540 1541 1543 1545 1546 1547 1548 1549 1550 1551 1552 1552 1553 1553 1554 1554 1554 1554 1555 1555 1555 1554 1554 1554 1554 1554 1554 1554 1553 1553 1553 1553 1553 1553 1552 1551
1524 1527 1529 1531 1533 1534 1536 1538 1540 1541 1543 1544 1545 1546 1547 1548 1549 1550 1551 1551 1552 1552 1553 1553 1553 1553 1553 1553 1553 1554 1553 1553 1553 1553 1553 1553 1553 1552 1552 1552 1551 1551 1550
1523 1524 1526 1529 1530 1532 1534 1536 1538 1539 1541 1542 1543 1544 1545 1546 1547 1548 1549 1550 1550 1551 1551 1552 1552 1551 1551 1552 1552 1552 1552 1552 1552 1552 1552 1552 1552 1551 1550 1550 1550 1550 1549
1520 1522 1524 1526 1528 1530 1532 1534 1535 1537 1539 1540 1541 1543 1543 1544 1545 1546 1547 1548 1549 1549 1550 1550 1550 1550 1551 1551 1550 1550 1550 1550 1551 1551 1551 1551 1550 1550 1549 1549 1549 1548 1548
1518 1520 1522 1524 1526 1528 1530 1531 1533 1535 1536 1538 1539 1540 1541 1542 1543 1544 1545 1546 1547 1547 1548 1548 1549 1549 1549 1549 1549 1549 1549 1549 1549 1549 1549 1549 1548 1548 1548 1548 1547 1547 1546
1515 1517 1519 1521 1523 1525 1527 1529 1530 1532 1534 1536 1537 1538 1539 1540 1541 1542 1543 1544 1544 1545 1546 1546 1547 1547 1547 1548 1548 1548 1548 1547 1547 1547 1547 1547 1546 1546 1546 1545 1545 1545 1545
1513 1515 1517 1519 1521 1522 1524 1526 1528 1530 1532 1533 1534 1536 1537 1538 1539 1540 1541 1541 1542 1543 1543 1544 1545 1545 1545 1545 1546 1546 1546 1546 1546 1546 1546 1545 1545 1544 1544 1544 1543 1543 1543
1510 1512 1514 1516 1518 1520 1522 1523 1525 1527 1529 1531 1532 1533 1534 1535 1536 1537 1538 1539 1540 1541 1541 1541 1542 1543 1543 1543 1544 1544 1544 1545 1544 1544 1544 1544 1543 1543 1542 1542 1541 1541 1540
1508 1510 1512 1514 1515 1517 1519 1521 1523 1524 1526 1527 1529 1530 1531 1533 1533 1534 1535 1537 1537 1538 1539 1539 1540 1540 1541 1541 1541 1541 1542 1542 1542 1542 1542 1542 1541 1541 1540 1539 1539 1538 1537
1506 1507 1509 1511 1512 1514 1516 1517 1519 1521 1523 1524 1526 1527 1528 1529 1530 1531 1532 1534 1535 1535 1536 1537 1537 1538 1538 1539 1539 1539 1539 1540 1540 1540 1540 1539 1539 1538 1538 1537 1536 1535 1534
1503 1505 1506 1508 1509 1511 1513 1515 1516 1518 1519 1521 1523 1524 1525 1526 1527 1528 1529 1530 1531 1532 1533 1533 1534 1535 1535 1536 1536 1536 1537 1537 1537 1537 1537 1537 1536 1536 1535 1534 1533 1532 1531
1500 1502 1503 1505 1506 1508 1509 1511 1513 1514 1516 1517 1519 1521 1522 1522 1524 1525 1525 1526 1527 1529 1529 1530 1531 1531 1532 1532 1533 1533 1533 1534 1534 1534 1534 1534 1533 1533 1532 1531 1530 1529 1528
1498 1499 1500 1501 1503 1504 1506 1507 1509 1511 1512 1514 1516 1517 1518 1520 1521 1522 1523 1524 1525 1525 1526 1527 1527 1528 1528 1529 1530 1530 1530 1530 1531 1531 1531 1531 1530 1530 1529 1528 1527 1526 1525
1494 1495 1496 1497 1499 1500 1502 1503 1505 1507 1508 1510 1512 1513 1515 1516 1518 1519 1520 1521 1521 1522 1523 1523 1524 1524 1525 1525 1526 1526 1527 1527 1527 1527 1527 1527 1527 1526 1525 1524 1523 1522 1521
1490 1491 1492 1493 1495 1496 1498 1500 1501 1503 1504 1505 1507 1509 1511 1513 1514 1515 1516 1517 1517 1518 1518 1519 1520 1520 1521 1521 1522 1522 1523 1523 1523 1523 1523 1523 1523 1522 1521 1520 1519 1518 1517
1486 1487 1488 1490 1491 1492 1494 1496 1497 1499 1500 1501 1502 1504 1506 1508 1509 1511 1511 1512 1512 1513 1514 1515 1515 1516 1517 1517 1518 1518 1518 1518 1518 1518 1518 1518 1518 1517 1517 1516 1515 1514 1514
1482 1483 1484 1486 1487 1488 1489 1491 1493 1494 1496 1497 1498 1499 1501 1502 1503 1504 1506 1507 1508 1509 1509 1510 1511 1511 1512 1513 1513 1513 1513 1513 1513 1513 1513 1513 1513 1512 1512 1512 1511 1510 1509
1478 1479 1480 1482 1483 1484 1485 1487 1488 1489 1491 1492 1493 1495 1496 1497 1498 1499 1500 1502 1502 1504 1504 1505 1506 1506 1507 1507 1508 1508 1508 1508 1508 1508 1508 1508 1508 1507 1507 1507 1507 1506 1505
1474 1475 1476 1477 1478 1479 1481 1482 1483 1485 1486 1487 1488 1489 1490 1492 1493 1494 1495 1496 1497 1498 1499 1500 1501 1501 1502 1502 1503 1503 1503 1503 1503 1503 1503 1503 1503 1503 1502 1502 1502 1501 1500
1469 1471 1472 1473 1474 1475 1476 1477 1479 1480 1481 1482 1483 1484 1485 1486 1487 1488 1490 1491 1492 1493 1494 1495 1495 1496 1497 1497 1497 1498 1498 1498 1498 1498 1498 1498 1498 1498 1497 1497 1496 1496 1495
1465 1466 1467 1468 1469 1471 1472 1472 1473 1475 1475 1476 1477 1478 1479 1480 1482 1483 1484 1485 1486 1487 1488 1489 1490 1490 1491 1492 1492 1492 1492 1493 1493 1493 1493 1492 1492 1492 1492 1492 1491 1491 1490
1460 1461 1462 1463 1464 1466 1467 1468 1469 1469 1470 1471 1472 1473 1474 1475 1476 1477 1478 1479 1480 1481 1482 1483 1484 1484 1485 1486 1486 1487 1487 1487 1487 1488 1488 1487 1487 1487 1487 1487 1486 1486 1485
1455 1456 1457 1458 1459 1460 1461 1462 1463 1464 1465 1466 1466 1467 1468 1469 1470 1471 1472 1473 1474 1475 1476 1477 1478 1479 1479 1480 1481 1481 1482 1482 1482 1482 1483 1482 1482 1482 1482 1482 1481 1480 1480